Lexington Weather

Lexington, Massachusetts, USA

25°F
2/26/2021 7:39am 
  • Lexington Conditions: Clear
  • Temperature: 25.0°F / -3.9°C 
  • Dew Point: 15.6°FIncreased 0.3°Fsince last hour.
  • Relative Humidity: 67%Increased 1.0% since last hour.
  • Wind: Calm, 10-min avg: Calm, gust: 1 mph
  • Barometer: 30.35 inRising 0.04  inHg/hr Rising Slowly
  • Visibility: 10 miles
  • Snow Today: 0.0 in
  •   

Regional Weather Roundup
for Boston / Norton, MA

        
000
ASUS41 KBOX 220104
RWRBOX

REGIONAL WEATHER ROUNDUP
NATIONAL WEATHER SERVICE BOSTON/NORTON MA
800 PM EST SUN FEB 21 2021

NOTE:  "FAIR" INDICATES FEW OR NO CLOUDS BELOW 12,000 FEET WITH NO 
SIGNIFICANT WEATHER AND/OR OBSTRUCTIONS TO VISIBILITY.

MAZALL-220200-
EASTERN MASSACHUSETTS
  
CITY           SKY/WX    TMP DP  RH WIND       PRES   REMARKS
BOSTON         CLEAR     29  10  45 NW6       30.47R WCI  23          
BEVERLY        CLEAR     25  11  55 CALM      30.44S                  
LAWRENCE       CLEAR     22  12  65 CALM      30.46S                  
BEDFORD        CLEAR     20   8  60 CALM      30.44R                  
BLUE HILL        N/A     25   8  48 NW7       30.41S WCI  17          
NORWOOD        CLEAR     19  10  68 CALM      30.46S                  
MARSHFIELD     CLEAR     23  18  80 CALM      30.46R                  
PLYMOUTH       CLEAR     19  15  84 CALM      30.45S                  
TAUNTON        CLEAR     18  15  88 CALM      30.45S                  
NEW BEDFORD    CLEAR     22  15  75 CALM      30.46S                  
$$

MAZALL-220200-
CAPE COD AND THE ISLANDS
  
CITY           SKY/WX    TMP DP  RH WIND       PRES   REMARKS
FALMOUTH       CLEAR     19  16  86 CALM      30.47R                  
HYANNIS        CLEAR     19  14  81 CALM      30.45R                  
CHATHAM        CLEAR     21  14  74 SW3       30.47F                  
PROVINCETOWN   CLEAR     27  15  61 W7        30.47R WCI  19          
NANTUCKET      CLEAR     21  17  84 CALM      30.48S                  
MARTHAS VNYRD  CLEAR     20  12  71 CALM      30.47S                  
$$
 
MAZALL-220200-
CENTRAL AND WESTERN MASSACHUSETTS
  
CITY           SKY/WX    TMP DP  RH WIND       PRES   REMARKS
WORCESTER      CLEAR     25   6  44 W6        30.41R WCI  18          
FITCHBURG      CLEAR     18  12  77 CALM      30.45R                  
ORANGE         CLEAR     19   9  65 S3        30.44F                  
SPRINGFIELD    CLEAR     20   5  53 CALM      30.45R                  
WESTFIELD      CLEAR     21  10  62 CALM      30.46S                  
NORTH ADAMS    CLEAR     14   6  70 CALM      30.43S                  
PITTSFIELD     CLEAR     16   6  65 CALM      30.38F                  
$$
 
RIZALL-220200-
RHODE ISLAND
  
CITY           SKY/WX    TMP DP  RH WIND       PRES   REMARKS
PROVIDENCE     CLEAR     27  11  51 W3        30.47R                  
NEWPORT        CLEAR     23  14  68 CALM      30.46S                  
BLOCK ISLAND   CLEAR     29  11  47 W5        30.49S WCI  24          
SMITHFIELD     CLEAR     23   9  55 CALM      30.45R                  
WESTERLY       CLEAR     20  11  68 CALM      30.48S                  
$$
 
CTZALL-220200-
CONNECTICUT
  
CITY           SKY/WX    TMP DP  RH WIND       PRES   REMARKS
BRADLEY INTL   CLEAR     26   8  46 CALM      30.47R                  
HARTFORD       CLEAR     29   8  41 W3        30.48F                  
BRIDGEPORT     CLEAR     27  11  51 CALM      30.48F                  
DANBURY        CLEAR     20  11  68 CALM      30.46F                  
GROTON         CLEAR     23  12  62 N3        30.48R                  
NEW HAVEN      CLEAR     22  11  62 CALM      30.48F                  
CHESTER        FAIR      27   5  39 CALM      30.46F                  
MERIDEN        CLEAR     21   9  59 CALM      30.48F                  
WILLIMANTIC    CLEAR     21  10  62 CALM      30.47S                  
OXFORD         CLEAR     20   6  55 CALM      30.44F                  
$$

MEZ002-015-021-024-NHZ003-005-008-011-012-014-VTZ005-008-220200-
NORTHERN NEW ENGLAND
  
CITY           SKY/WX    TMP DP  RH WIND       PRES   REMARKS
PORTLAND ME    CLEAR     23  10  57 NW6       30.42R WCI  16          
BANGOR ME      CLEAR     26   7  44 W5        30.38R WCI  20          
CONCORD NH     CLEAR     22   6  50 CALM      30.44R                  
MANCHESTER NH  CLEAR     24  10  55 CALM      30.43R                  
NASHUA NH      CLEAR     19  10  68 CALM      30.45S                  
PORTSMOUTH NH  CLEAR     26   7  44 W3        30.43R                  
JAFFREY NH     CLEAR     12   5  73 CALM      30.39F                  
KEENE NH       CLEAR     17   9  70 CALM      30.43F                  
BURLINGTON VT  CLEAR     19   7  59 S5        30.41F WCI  12          
MT. WASHINGTON CLEAR      1  -6  71 W28         N/A  WCI -23          
$$

NYZ052-076-220200-
EASTERN NEW YORK
  
CITY           SKY/WX    TMP DP  RH WIND       PRES   REMARKS
ALBANY         CLEAR     19   9  65 CALM      30.44F                  
NEW YORK CITY  PTCLDY    35  12  38 SW3       30.48S                  
$$
 
ANZALL-220200-
MARINE OBSERVATIONS
  
STATION/POSITION TIME  TEMP    WIND        PRES    VSBY  WAVE
                       AIR SEA DIR/SP/G                  HT/PER
                 (UTC) (F)     (DEG/KT/KT) (MB)    (MI)  (FT/S)
BOSTON BUOY      0040   33 39  310/  8/ 10 1031.8R
BUZZARDS BAY     0000          220/  7/  8 1032.7R
NANTUCKET SOUND  0040      36  190/  4/  6   N/A
MASS BAY-STELLWA 0004   33     320/ 10/ 14 1030.1S  1 7/8  4/11
ISLE OF SHOALS   0000   31     290/ 14/ 16 1030.4R
S OF BLOCK IS    0026      38                N/A           3/10
$$

......................KEY.........................
  SKY/WX - SKY CONDITION/PRESENT WEATHER
  TMP    - TEMPERATURE IN FAHRENHEIT
  DWPT   - DEWPOINT IN FAHRENHEIT
  RH     - RELATIVE HUMIDITY IN PERCENT
  WIND   - DIRECTION AND SPEED IN MPH
  PRES   - MEAN SEA LEVEL PRESSURE IN INCHES OF HG
  WCI    - WIND CHILL INDEX
  VSB    - VISIBILITY IN MILES
  HX     - HEAT INDEX
  TC     - TEMPERATURE IN CELSIUS
  VRB    - VARIABLE WIND DIRECTION
  N/A    - NOT AVAILABLE
  
      

Other recent Regional Weather Roundups

Fri Feb 26, 7:04am

Fri Feb 26, 6:04am

Fri Feb 26, 5:04am

Fri Feb 26, 4:04am

Fri Feb 26, 3:04am

Fri Feb 26, 2:04am

Fri Feb 26, 1:04am

Fri Feb 26, 12:04am

Thu Feb 25, 11:04pm

Thu Feb 25, 10:04pm

Thu Feb 25, 9:04pm

Thu Feb 25, 8:05pm

Thu Feb 25, 7:05pm

Thu Feb 25, 6:04pm

Thu Feb 25, 5:04pm

Thu Feb 25, 4:05pm

Thu Feb 25, 3:05pm

Thu Feb 25, 2:04pm

Thu Feb 25, 1:04pm

Thu Feb 25, 12:05pm

Thu Feb 25, 11:04am

Thu Feb 25, 10:04am

Thu Feb 25, 9:04am

Thu Feb 25, 8:04am

Thu Feb 25, 7:04am

Thu Feb 25, 6:04am

Thu Feb 25, 5:04am

Thu Feb 25, 4:04am

Thu Feb 25, 3:04am

Thu Feb 25, 2:04am

Thu Feb 25, 1:04am

Thu Feb 25, 12:04am

Wed Feb 24, 11:04pm

Wed Feb 24, 10:05pm

Wed Feb 24, 9:04pm

Wed Feb 24, 8:04pm

Wed Feb 24, 7:04pm

Wed Feb 24, 6:04pm

Wed Feb 24, 5:04pm

Wed Feb 24, 4:04pm

Wed Feb 24, 3:04pm

Wed Feb 24, 2:05pm

Wed Feb 24, 1:05pm

Wed Feb 24, 12:05pm

Wed Feb 24, 11:04am

Wed Feb 24, 10:04am

Wed Feb 24, 9:04am

Wed Feb 24, 8:04am

Wed Feb 24, 7:04am

Wed Feb 24, 6:04am

Wed Feb 24, 5:04am

Wed Feb 24, 4:04am

Wed Feb 24, 3:04am

Wed Feb 24, 2:04am

Wed Feb 24, 1:04am

Wed Feb 24, 12:04am

Tue Feb 23, 11:04pm

Tue Feb 23, 10:04pm

Tue Feb 23, 9:04pm

Tue Feb 23, 8:05pm

Tue Feb 23, 7:04pm

Tue Feb 23, 6:04pm

Tue Feb 23, 5:04pm

Tue Feb 23, 4:05pm

Tue Feb 23, 3:04pm

Tue Feb 23, 2:04pm

Tue Feb 23, 1:04pm

Tue Feb 23, 12:04pm

Tue Feb 23, 11:04am

Tue Feb 23, 10:04am

Tue Feb 23, 9:04am

Tue Feb 23, 7:04am

Tue Feb 23, 6:04am

Tue Feb 23, 5:04am

Tue Feb 23, 4:04am

Tue Feb 23, 3:04am

Tue Feb 23, 2:04am

Tue Feb 23, 1:04am

Tue Feb 23, 12:04am

Mon Feb 22, 11:04pm

Mon Feb 22, 10:04pm

Mon Feb 22, 9:04pm

Mon Feb 22, 8:04pm

Mon Feb 22, 7:04pm

Mon Feb 22, 6:04pm

Mon Feb 22, 5:04pm

Mon Feb 22, 4:05pm

Mon Feb 22, 3:04pm

Mon Feb 22, 2:05pm

Mon Feb 22, 1:04pm

Mon Feb 22, 12:05pm

Mon Feb 22, 11:04am

Mon Feb 22, 10:04am

Mon Feb 22, 9:05am

Mon Feb 22, 8:04am

Mon Feb 22, 7:04am

Mon Feb 22, 6:04am

Mon Feb 22, 5:04am

Mon Feb 22, 4:04am

Mon Feb 22, 3:04am

Mon Feb 22, 2:04am

Mon Feb 22, 1:04am

Mon Feb 22, 12:04am

Sun Feb 21, 11:04pm

Sun Feb 21, 10:05pm

Sun Feb 21, 9:04pm

Sun Feb 21, 7:04pm

Sun Feb 21, 6:04pm

Sun Feb 21, 5:04pm

Sun Feb 21, 4:05pm

Sun Feb 21, 3:04pm

Sun Feb 21, 2:04pm

Sun Feb 21, 1:05pm

Sun Feb 21, 12:05pm

Sun Feb 21, 11:04am

Sun Feb 21, 10:05am

Sun Feb 21, 9:04am

Sun Feb 21, 8:04am

Sun Feb 21, 7:04am

Sun Feb 21, 6:04am

Sun Feb 21, 5:04am

Sun Feb 21, 4:04am

Sun Feb 21, 3:04am

Sun Feb 21, 2:04am

Sun Feb 21, 1:04am

Sun Feb 21, 12:04am

Sat Feb 20, 11:04pm

Sat Feb 20, 10:04pm

Sat Feb 20, 9:04pm

Sat Feb 20, 8:04pm

Sat Feb 20, 7:04pm

Sat Feb 20, 6:04pm

Sat Feb 20, 5:04pm

Sat Feb 20, 4:05pm

Sat Feb 20, 3:04pm

Sat Feb 20, 2:04pm

Sat Feb 20, 1:05pm

Sat Feb 20, 12:05pm

Sat Feb 20, 11:04am

Sat Feb 20, 10:05am

Sat Feb 20, 9:04am

Sat Feb 20, 8:04am

Sat Feb 20, 7:04am

Sat Feb 20, 6:04am

Sat Feb 20, 5:04am

Sat Feb 20, 4:04am

Sat Feb 20, 3:04am

Sat Feb 20, 2:04am

Sat Feb 20, 1:04am

Sat Feb 20, 12:04am

Fri Feb 19, 11:04pm

Fri Feb 19, 10:05pm

Fri Feb 19, 9:04pm

Fri Feb 19, 8:04pm

Fri Feb 19, 7:04pm

Fri Feb 19, 6:04pm

Fri Feb 19, 5:04pm

Fri Feb 19, 4:05pm

Fri Feb 19, 3:04pm

Fri Feb 19, 2:04pm

Fri Feb 19, 1:05pm

Fri Feb 19, 12:05pm

Fri Feb 19, 11:04am

Fri Feb 19, 10:04am

Fri Feb 19, 9:04am

Fri Feb 19, 8:04am

Meta data:

ID: aa4980fe-5c82-4022-b64f-b9fa2e75998c
Link: https://api.weather.gov/products/aa4980fe-5c82-4022-b64f-b9fa2e75998c